{"data":{"norad_id":69821,"intl_designator":"2026-154C","name":"STARLINK-37561","alt_names":[],"object_type":"PAYLOAD","status":"ACTIVE","operator":null,"country":"US","launch_date":"2026-07-05","launch_site_code":"AFETR","launch_vehicle":null,"mission":null,"orbit_class":"UNKNOWN","rcs_meters":null,"size_class":null,"mass_kg":null,"dimensions":null,"purposes":["comms"],"wikipedia_slug":null,"has_3d_model":false,"image_url":null,"decayed_at":null,"tle_current":{"epoch":"2026-09-19T22:02:03.319008Z","epoch_age_seconds":68113,"freshness":"FRESH","line1":"1 69821U 26154C   26262.91809397  .00013619  00000+0  41340-3 0  9992","line2":"2 69821  53.1589 334.0876 0001491 251.5635 108.5205 15.34405877 13157","mean_motion":15.34405877,"eccentricity":0.0001491,"inclination_deg":53.1589,"raan_deg":334.0876,"arg_perigee_deg":251.5635,"mean_anomaly_deg":108.5205,"bstar":0.0004134,"rev_number":1315,"period_min":93.84739863063,"perigee_km":461.66580590495,"apogee_km":463.70573925573,"semimajor_km":6840.8227725803,"source":"CELESTRAK","updated_at":"2026-09-20T09:00:44.291472Z"}}}